Location: PSU-Greenbush Astrophysical Observatory
(37.5140°N, 94.9880°W)
Time: 19:24:26
(UTC-06:00)

Altair - Pass Details

Date: 01 February 2020
Orbit: 1502 x 1682 km, 47.2° (Epoch: 19 February)

Event Time Altitude Azimuth Distance (km) Brightness Sun altitude
Rises 06:43:32 0° 234° (SW) 4,797 9.7 -8.4°
Reaches altitude 10° 06:46:35 10° 234° (SW) 3,836 9.2 -7.8°
Maximum altitude 06:56:29 88° 146° (SSE) 1,661 7.7 -6.0°
Drops below altitude 10° 07:06:41 10° 58° (ENE) 3,945 10.3 -4.0°
Sets 07:09:52 0° 59° (ENE) 4,938 10.8 -3.4°
